Lexington Weather

Lexington, Massachusetts, USA

34°F
4/16/2021 10:01am 
  • Lexington Conditions: Snow, Fog, Overcast
  • Temperature: 33.8°F / 1.0°CColder 1.4°F than last hour.
  • Dew Point: 32.5°FDecreased 1.1°Fsince last hour.
  • Relative Humidity: 95%Increased 1.0% since last hour.
  • Wind: Calm, 10-min avg: Calm, gust: None
  • Barometer: 29.50 in Steady
  • Visibility: ½ mile
  • Snow Today: 1.3 in
  •   

Regional Weather Roundup
for Boston / Norton, MA

        
000
ASUS41 KBOX 130604
RWRBOX

REGIONAL WEATHER ROUNDUP
NATIONAL WEATHER SERVICE BOSTON/NORTON MA
200 AM EDT TUE APR 13 2021

NOTE:  "FAIR" INDICATES FEW OR NO CLOUDS BELOW 12,000 FEET WITH NO 
SIGNIFICANT WEATHER AND/OR OBSTRUCTIONS TO VISIBILITY.

MAZALL-130700-
EASTERN MASSACHUSETTS
  
CITY           SKY/WX    TMP DP  RH WIND       PRES   REMARKS
BOSTON         CLOUDY    44  35  70 N9        29.97F                  
6HR MIN TEMP:  43; 6HR MAX TEMP:  46;                                

BEVERLY        NOT AVBL                                               
LAWRENCE       CLOUDY    39  34  82 N3        29.99F                  
BEDFORD        CLOUDY    36  34  92 CALM      29.97S                  
BLUE HILL        N/A     38  36  92 N10       29.93F WCI  31          
NORWOOD        CLOUDY    39  35  86 CALM      29.97S                  
MARSHFIELD     CLOUDY    45  41  87 VRB7      29.95F                  
PLYMOUTH       CLOUDY    40  38  93 N9        29.94F                  
TAUNTON        MOCLDY    37  35  92 N3        29.95F                  
NEW BEDFORD    MOCLDY    40  37  89 N6        29.93F                  
$$

MAZALL-130700-
CAPE COD AND THE ISLANDS
  
CITY           SKY/WX    TMP DP  RH WIND       PRES   REMARKS
FALMOUTH       MOCLDY    37  37 100 CALM      29.94S                  
HYANNIS        CLOUDY    44  40  85 N9        29.90F                  
CHATHAM        CLOUDY    43  38  82 VRB6      29.92F                  
PROVINCETOWN   CLOUDY    43  41  93 MISG        N/A                   
NANTUCKET      MOCLDY    43  39  86 N14       29.90F                  
MARTHAS VNYRD  MOCLDY    42  38  85 N14       29.91F                  
$$
 
MAZALL-130700-
CENTRAL AND WESTERN MASSACHUSETTS
  
CITY           SKY/WX    TMP DP  RH WIND       PRES   REMARKS
WORCESTER      PTCLDY    40  31  70 N7        29.95S                  
6HR MIN TEMP:  39; 6HR MAX TEMP:  43;                                

FITCHBURG      CLOUDY    35  33  92 NW3       29.98F                  
ORANGE         CLEAR     32  31  96 CALM      29.99S FOG              
SPRINGFIELD    MOCLDY    35  34  97 NE5       29.97S WCI  30          
WESTFIELD      MOCLDY    38  35  89 NW3       29.97F                  
NORTH ADAMS    MOCLDY    37  34  89 CALM      29.99R                  
PITTSFIELD     MOCLDY    39  35  86 CALM      29.95S                  
$$
 
RIZALL-130700-
RHODE ISLAND
  
CITY           SKY/WX    TMP DP  RH WIND       PRES   REMARKS
PROVIDENCE     MOCLDY    42  37  82 N10       29.95F                  
6HR MIN TEMP:  41; 6HR MAX TEMP:  46;                                

NEWPORT        PTCLDY    40  36  86 N9        29.93S                  
BLOCK ISLAND   PTCLDY    40  36  86 N9        29.93F                  
SMITHFIELD     MOCLDY    38  38 100 N9        29.95F WCI  31          
WESTERLY       PTCLDY    39  35  86 N5        29.94S                  
$$
 
CTZALL-130700-
CONNECTICUT
  
CITY           SKY/WX    TMP DP  RH WIND       PRES   REMARKS
BRADLEY INTL   MOCLDY    41  34  76 N5        29.97F                  
6HR MIN TEMP:  39; 6HR MAX TEMP:  47;                                

HARTFORD       PTCLDY    43  35  73 N3        29.97F                  
BRIDGEPORT     CLOUDY    46  37  71 N10       29.95F                  
DANBURY        CLOUDY    46  35  65 NE5       29.97S                  
GROTON         PTCLDY    41  36  82 N10       29.94S                  
NEW HAVEN      PTCLDY    44  37  76 N8        29.96S                  
CHESTER        FAIR      41  37  87 N7        29.95S                  
MERIDEN        PTCLDY    42  34  73 N5        29.97S                  
WILLIMANTIC    MOCLDY    40  35  83 N5        29.96F                  
OXFORD         PTCLDY    38  36  92 N7        29.96F                  
$$

MEZ002-015-021-024-NHZ003-005-008-011-012-014-VTZ005-008-130700-
NORTHERN NEW ENGLAND
  
CITY           SKY/WX    TMP DP  RH WIND       PRES   REMARKS
PORTLAND ME    CLOUDY    44  36  73 N6        29.98F                  
6HR MIN TEMP:  36; 6HR MAX TEMP:  44;                                

BANGOR ME      CLEAR     45  36  70 N12       29.97F                  
CONCORD NH     CLOUDY    33  30  88 CALM      30.00S                  
MANCHESTER NH  MOCLDY    40  32  73 N3        29.98S                  
NASHUA NH      CLOUDY    36  36 100 NW5       30.00S                  
PORTSMOUTH NH  CLOUDY    39  33  79 NW8       29.99S                  
JAFFREY NH     CLEAR     31  29  92 CALM      29.98S                  
KEENE NH       CLEAR     32  31  96 CALM      30.00S                  
BURLINGTON VT  CLEAR     48  40  73 S5        29.99R                  
MT. WASHINGTON NOT AVBL                                               
$$

NYZ052-076-130700-
EASTERN NEW YORK
  
CITY           SKY/WX    TMP DP  RH WIND       PRES   REMARKS
ALBANY         CLOUDY    41  39  93 CALM      30.00R                  
6HR MIN TEMP:  40; 6HR MAX TEMP:  49;                                

NEW YORK CITY  LGT RAIN  46  42  86 NE7       29.96R                  
6HR MIN TEMP:  46; 6HR MAX TEMP:  48; 6HR PCP:  0.29;                

$$
 
ANZALL-130700-
MARINE OBSERVATIONS
  
STATION/POSITION TIME  TEMP    WIND        PRES    VSBY  WAVE
                       AIR SEA DIR/SP/G                  HT/PER
                 (UTC) (F)     (DEG/KT/KT) (MB)    (MI)  (FT/S)
BOSTON BUOY      0550   43 44  340/ 12/ 14 1014.7F         4/ 7
BUZZARDS BAY     0500           10/ 14/ 15 1014.3R
NANTUCKET SOUND  0550      47                N/A           2/ 7
MASS BAY-STELLWA NOT AVBL
ISLE OF SHOALS   0500   42     350/ 10/ 10 1014.7R
S OF BLOCK IS    0526      44                N/A           5/ 7
$$

......................KEY.........................
  SKY/WX - SKY CONDITION/PRESENT WEATHER
  TMP    - TEMPERATURE IN FAHRENHEIT
  DWPT   - DEWPOINT IN FAHRENHEIT
  RH     - RELATIVE HUMIDITY IN PERCENT
  WIND   - DIRECTION AND SPEED IN MPH
  PRES   - MEAN SEA LEVEL PRESSURE IN INCHES OF HG
  WCI    - WIND CHILL INDEX
  VSB    - VISIBILITY IN MILES
  HX     - HEAT INDEX
  TC     - TEMPERATURE IN CELSIUS
  VRB    - VARIABLE WIND DIRECTION
  N/A    - NOT AVAILABLE
  
      

Other recent Regional Weather Roundups

Fri Apr 16, 9:04am

Fri Apr 16, 8:04am

Fri Apr 16, 7:04am

Fri Apr 16, 6:04am

Fri Apr 16, 5:04am

Fri Apr 16, 4:04am

Fri Apr 16, 3:04am

Fri Apr 16, 2:04am

Fri Apr 16, 1:04am

Fri Apr 16, 12:04am

Thu Apr 15, 11:05pm

Thu Apr 15, 10:04pm

Thu Apr 15, 9:04pm

Thu Apr 15, 8:04pm

Thu Apr 15, 7:05pm

Thu Apr 15, 6:04pm

Thu Apr 15, 5:05pm

Thu Apr 15, 4:04pm

Thu Apr 15, 3:05pm

Thu Apr 15, 2:04pm

Thu Apr 15, 1:05pm

Thu Apr 15, 12:04pm

Thu Apr 15, 11:04am

Thu Apr 15, 10:05am

Thu Apr 15, 9:04am

Thu Apr 15, 8:04am

Thu Apr 15, 7:04am

Thu Apr 15, 6:04am

Thu Apr 15, 5:04am

Thu Apr 15, 4:04am

Thu Apr 15, 3:04am

Thu Apr 15, 2:04am

Thu Apr 15, 1:04am

Thu Apr 15, 12:04am

Wed Apr 14, 11:04pm

Wed Apr 14, 10:04pm

Wed Apr 14, 9:04pm

Wed Apr 14, 8:04pm

Wed Apr 14, 7:04pm

Wed Apr 14, 6:04pm

Wed Apr 14, 5:05pm

Wed Apr 14, 4:04pm

Wed Apr 14, 3:05pm

Wed Apr 14, 2:04pm

Wed Apr 14, 1:05pm

Wed Apr 14, 12:04pm

Wed Apr 14, 11:04am

Wed Apr 14, 10:04am

Wed Apr 14, 9:04am

Wed Apr 14, 8:04am

Wed Apr 14, 7:04am

Wed Apr 14, 6:04am

Wed Apr 14, 5:04am

Wed Apr 14, 4:04am

Wed Apr 14, 3:04am

Wed Apr 14, 2:04am

Wed Apr 14, 1:04am

Wed Apr 14, 12:04am

Tue Apr 13, 11:04pm

Tue Apr 13, 10:05pm

Tue Apr 13, 9:05pm

Tue Apr 13, 8:05pm

Tue Apr 13, 7:04pm

Tue Apr 13, 6:04pm

Tue Apr 13, 5:05pm

Tue Apr 13, 4:04pm

Tue Apr 13, 3:04pm

Tue Apr 13, 2:05pm

Tue Apr 13, 1:04pm

Tue Apr 13, 12:05pm

Tue Apr 13, 11:05am

Tue Apr 13, 10:04am

Tue Apr 13, 9:04am

Tue Apr 13, 8:04am

Tue Apr 13, 7:04am

Tue Apr 13, 6:04am

Tue Apr 13, 5:04am

Tue Apr 13, 4:04am

Tue Apr 13, 3:04am

Tue Apr 13, 1:04am

Tue Apr 13, 12:05am

Mon Apr 12, 11:04pm

Mon Apr 12, 10:04pm

Mon Apr 12, 9:04pm

Mon Apr 12, 8:04pm

Mon Apr 12, 7:05pm

Mon Apr 12, 6:04pm

Mon Apr 12, 5:04pm

Mon Apr 12, 4:04pm

Mon Apr 12, 3:05pm

Mon Apr 12, 2:04pm

Mon Apr 12, 1:05pm

Mon Apr 12, 12:04pm

Mon Apr 12, 11:04am

Mon Apr 12, 10:04am

Mon Apr 12, 9:04am

Mon Apr 12, 8:04am

Mon Apr 12, 7:04am

Mon Apr 12, 6:04am

Mon Apr 12, 5:04am

Mon Apr 12, 4:04am

Mon Apr 12, 3:04am

Mon Apr 12, 2:04am

Mon Apr 12, 1:05am

Mon Apr 12, 12:04am

Sun Apr 11, 11:04pm

Sun Apr 11, 10:04pm

Sun Apr 11, 9:04pm

Sun Apr 11, 8:04pm

Sun Apr 11, 7:04pm

Sun Apr 11, 6:05pm

Sun Apr 11, 5:05pm

Sun Apr 11, 4:04pm

Sun Apr 11, 3:05pm

Sun Apr 11, 2:05pm

Sun Apr 11, 1:05pm

Sun Apr 11, 12:04pm

Sun Apr 11, 11:05am

Sun Apr 11, 10:05am

Sun Apr 11, 9:04am

Sun Apr 11, 8:04am

Sun Apr 11, 7:04am

Sun Apr 11, 6:04am

Sun Apr 11, 5:04am

Sun Apr 11, 4:04am

Sun Apr 11, 3:04am

Sun Apr 11, 2:04am

Sun Apr 11, 1:05am

Sun Apr 11, 12:04am

Sat Apr 10, 11:05pm

Sat Apr 10, 10:04pm

Sat Apr 10, 9:04pm

Sat Apr 10, 8:04pm

Sat Apr 10, 7:05pm

Sat Apr 10, 6:04pm

Sat Apr 10, 5:04pm

Sat Apr 10, 4:04pm

Sat Apr 10, 3:04pm

Sat Apr 10, 2:05pm

Sat Apr 10, 1:04pm

Sat Apr 10, 12:04pm

Sat Apr 10, 11:04am

Sat Apr 10, 10:04am

Sat Apr 10, 9:04am

Sat Apr 10, 8:04am

Sat Apr 10, 7:04am

Sat Apr 10, 6:04am

Sat Apr 10, 5:04am

Sat Apr 10, 4:04am

Sat Apr 10, 3:04am

Sat Apr 10, 2:04am

Sat Apr 10, 1:05am

Sat Apr 10, 12:04am

Fri Apr 9, 11:04pm

Fri Apr 9, 10:05pm

Fri Apr 9, 9:04pm

Fri Apr 9, 8:05pm

Fri Apr 9, 7:05pm

Fri Apr 9, 6:04pm

Fri Apr 9, 5:04pm

Fri Apr 9, 4:05pm

Fri Apr 9, 3:05pm

Fri Apr 9, 2:04pm

Fri Apr 9, 1:04pm

Fri Apr 9, 12:04pm

Fri Apr 9, 11:05am

Fri Apr 9, 10:04am

Meta data:

ID: c5390c8b-2a83-4916-922e-728d8571cb13
Link: https://api.weather.gov/products/c5390c8b-2a83-4916-922e-728d8571cb13